Hourly Weather Nizhneangarsk

Today, 1 August, Sunday

Time Temperature Precipitation Wind Pressure Humidity
00:00 +15°C° 0 mm 0 mps 716 mmHg 71%
01:00 +15°C° 0 mm 0 mps 716 mmHg 70%
02:00 +14°C° 0 mm 0 mps 715 mmHg 70%
03:00 +15°C° 0 mm 1 mps 715 mmHg 70%
04:00 +14°C° 0 mm 1 mps 715 mmHg 69%
05:00 +16°C° 0 mm 1 mps 715 mmHg 65%
06:00 +18°C° 0 mm 1 mps 715 mmHg 61%
07:00 +18°C° 0 mm 0 mps 715 mmHg 56%
08:00 +21°C° 0 mm 1 mps 715 mmHg 54%
09:00 +22°C° 0 mm 1 mps 715 mmHg 52%
10:00 +23°C° 0 mm 2 mps 715 mmHg 50%
11:00 +23°C° 0 mm 2 mps 714 mmHg 51%
12:00 +23°C° 0 mm 2 mps 714 mmHg 51%
13:00 +24°C° 0 mm 2 mps 714 mmHg 51%
14:00 +23°C° 0 mm 2 mps 714 mmHg 56%
15:00 +22°C° 0 mm 1 mps 713 mmHg 60%
16:00 +21°C° 0 mm 1 mps 713 mmHg 64%
17:00 +20°C° 0 mm 1 mps 713 mmHg 67%
18:00 +20°C° 0 mm 1 mps 713 mmHg 70%
19:00 +19°C° 0 mm 1 mps 713 mmHg 74%
20:00 +18°C° 0 mm 1 mps 712 mmHg 76%
21:00 +16°C° 0 mm 1 mps 712 mmHg 78%
22:00 +15°C° 0 mm 1 mps 712 mmHg 80%
23:00 +15°C° 0 mm 1 mps 712 mmHg 81%

Tomorrow, 2 August, Monday

Time Temperature Precipitation Wind Pressure Humidity
00:00 +15°C° 0 mm 1 mps 712 mmHg 81%
01:00 +14°C° 0 mm 1 mps 711 mmHg 81%
02:00 +14°C° 0 mm 1 mps 711 mmHg 79%
03:00 +13°C° 0 mm 0 mps 711 mmHg 78%
04:00 +13°C° 0 mm 0 mps 711 mmHg 76%
05:00 +15°C° 0 mm 0 mps 711 mmHg 69%
06:00 +17°C° 0 mm 0 mps 711 mmHg 62%
07:00 +18°C° 0 mm 0 mps 711 mmHg 55%
08:00 +21°C° 0 mm 1 mps 710 mmHg 52%
09:00 +22°C° 0 mm 1 mps 710 mmHg 49%
10:00 +23°C° 0 mm 1 mps 710 mmHg 47%
11:00 +24°C° 0 mm 1 mps 710 mmHg 45%
12:00 +24°C° 0 mm 2 mps 710 mmHg 43%
13:00 +25°C° 0 mm 2 mps 710 mmHg 41%
14:00 +25°C° 0 mm 1 mps 710 mmHg 40%
15:00 +25°C° 0 mm 1 mps 710 mmHg 39%
16:00 +25°C° 0 mm 1 mps 710 mmHg 38%
17:00 +23°C° 0 mm 1 mps 710 mmHg 44%
18:00 +20°C° 0 mm 0 mps 711 mmHg 51%
19:00 +19°C° 0 mm 0 mps 711 mmHg 58%
20:00 +18°C° 0 mm 0 mps 711 mmHg 59%
21:00 +19°C° 0 mm 1 mps 711 mmHg 61%
22:00 +18°C° 0 mm 1 mps 711 mmHg 62%
23:00 +16°C° 0 mm 1 mps 711 mmHg 64%

Day after tomorrow, 3 August, Tuesday

Time Temperature Precipitation Wind Pressure Humidity
00:00 +16°C° 0 mm 1 mps 711 mmHg 65%
01:00 +15°C° 0 mm 1 mps 711 mmHg 67%
02:00 +15°C° 0 mm 1 mps 711 mmHg 68%
03:00 +15°C° 0 mm 1 mps 712 mmHg 69%
04:00 +15°C° 0 mm 1 mps 712 mmHg 70%
05:00 +16°C° 0 mm 1 mps 712 mmHg 67%
06:00 +18°C° 0 mm 1 mps 712 mmHg 63%
07:00 +19°C° 0 mm 1 mps 713 mmHg 60%
08:00 +20°C° 0 mm 1 mps 713 mmHg 57%
09:00 +21°C° 0 mm 1 mps 713 mmHg 55%
10:00 +22°C° 0 mm 1 mps 713 mmHg 53%
11:00 +22°C° 0 mm 1 mps 713 mmHg 55%
12:00 +21°C° 0 mm 1 mps 713 mmHg 57%
13:00 +21°C° 0 mm 1 mps 713 mmHg 59%
14:00 +20°C° 0 mm 1 mps 713 mmHg 63%
15:00 +18°C° 0 mm 0 mps 713 mmHg 68%
16:00 +17°C° 0 mm 0 mps 713 mmHg 72%
17:00 +16°C° 0 mm 0 mps 713 mmHg 74%
18:00 +18°C° 0 mm 1 mps 713 mmHg 76%
19:00 +18°C° 0 mm 1 mps 713 mmHg 78%
20:00 +18°C° 0 mm 1 mps 713 mmHg 79%
21:00 +16°C° 0 mm 0 mps 713 mmHg 80%
22:00 +16°C° 0 mm 0 mps 713 mmHg 81%
23:00 +15°C° 0.2 mm 0 mps 713 mmHg 83%

4 August, Wednesday

Time Temperature Precipitation Wind Pressure Humidity
00:00 +15°C° 0.2 mm 0 mps 713 mmHg 85%
01:00 +15°C° 0.2 mm 0 mps 713 mmHg 88%
02:00 +15°C° 0.2 mm 0 mps 713 mmHg 89%
03:00 +15°C° 0.2 mm 0 mps 713 mmHg 91%
04:00 +15°C° 0.2 mm 0 mps 713 mmHg 92%
05:00 +15°C° 0.1 mm 0 mps 713 mmHg 90%
06:00 +16°C° 0.1 mm 0 mps 713 mmHg 87%
07:00 +16°C° 0.1 mm 0 mps 713 mmHg 85%
08:00 +19°C° 0 mm 1 mps 713 mmHg 80%
09:00 +20°C° 0 mm 1 mps 713 mmHg 75%
10:00 +20°C° 0 mm 2 mps 713 mmHg 70%
11:00 +20°C° 0.1 mm 2 mps 713 mmHg 69%
12:00 +20°C° 0.1 mm 2 mps 713 mmHg 69%
13:00 +20°C° 0.1 mm 2 mps 713 mmHg 68%
14:00 +20°C° 0.1 mm 2 mps 713 mmHg 67%
15:00 +21°C° 0.1 mm 2 mps 713 mmHg 66%
16:00 +22°C° 0.1 mm 1 mps 713 mmHg 65%
17:00 +21°C° 0.1 mm 1 mps 713 mmHg 69%
18:00 +20°C° 0.1 mm 1 mps 713 mmHg 73%
19:00 +19°C° 0.1 mm 1 mps 713 mmHg 77%
20:00 +18°C° 0 mm 1 mps 713 mmHg 80%
21:00 +16°C° 0 mm 1 mps 713 mmHg 82%
22:00 +14°C° 0 mm 0 mps 713 mmHg 85%
23:00 +14°C° 0 mm 0 mps 712 mmHg 85%

5 August, Thursday

Time Temperature Precipitation Wind Pressure Humidity
00:00 +14°C° 0 mm 0 mps 712 mmHg 85%
01:00 +14°C° 0 mm 0 mps 712 mmHg 85%
02:00 +15°C° 0 mm 1 mps 712 mmHg 85%
03:00 +15°C° 0 mm 1 mps 712 mmHg 85%
04:00 +15°C° 0 mm 1 mps 712 mmHg 85%
05:00 +15°C° 0.1 mm 1 mps 712 mmHg 85%
06:00 +15°C° 0.1 mm 0 mps 712 mmHg 84%
07:00 +16°C° 0.1 mm 0 mps 712 mmHg 83%
08:00 +16°C° 0.1 mm 0 mps 711 mmHg 81%
09:00 +19°C° 0.1 mm 1 mps 711 mmHg 78%
10:00 +20°C° 0.1 mm 1 mps 711 mmHg 75%
11:00 +20°C° 0.2 mm 1 mps 711 mmHg 74%
12:00 +20°C° 0.2 mm 1 mps 711 mmHg 72%
13:00 +21°C° 0.2 mm 1 mps 711 mmHg 70%
14:00 +20°C° 0.2 mm 1 mps 710 mmHg 72%
15:00 +18°C° 0.2 mm 0 mps 710 mmHg 74%
16:00 +17°C° 0.2 mm 0 mps 710 mmHg 76%
17:00 +17°C° 0.1 mm 0 mps 710 mmHg 79%
18:00 +16°C° 0.1 mm 0 mps 710 mmHg 82%
19:00 +18°C° 0.1 mm 1 mps 710 mmHg 85%
20:00 +16°C° 0 mm 1 mps 710 mmHg 87%
21:00 +16°C° 0 mm 1 mps 710 mmHg 88%
22:00 +15°C° 0 mm 1 mps 709 mmHg 89%
23:00 +15°C° 0.1 mm 1 mps 709 mmHg 89%

6 August, Friday

Time Temperature Precipitation Wind Pressure Humidity
00:00 +15°C° 0.1 mm 1 mps 709 mmHg 89%
01:00 +15°C° 0.1 mm 1 mps 709 mmHg 89%
02:00 +15°C° 0.1 mm 1 mps 709 mmHg 89%
03:00 +15°C° 0.1 mm 1 mps 709 mmHg 90%
04:00 +14°C° 0.1 mm 1 mps 709 mmHg 90%
05:00 +15°C° 0.1 mm 1 mps 709 mmHg 87%
06:00 +16°C° 0.1 mm 1 mps 709 mmHg 85%
07:00 +16°C° 0.1 mm 0 mps 709 mmHg 82%
08:00 +19°C° 0.2 mm 1 mps 709 mmHg 80%
09:00 +19°C° 0.2 mm 1 mps 709 mmHg 78%
10:00 +20°C° 0.2 mm 1 mps 709 mmHg 76%
11:00 +20°C° 0.2 mm 1 mps 709 mmHg 73%
12:00 +21°C° 0.2 mm 1 mps 709 mmHg 69%
13:00 +22°C° 0.2 mm 1 mps 709 mmHg 66%
14:00 +22°C° 0.3 mm 1 mps 709 mmHg 65%
15:00 +22°C° 0.3 mm 1 mps 709 mmHg 65%
16:00 +22°C° 0.3 mm 1 mps 709 mmHg 64%
17:00 +21°C° 0.1 mm 1 mps 709 mmHg 70%
18:00 +20°C° 0.1 mm 1 mps 709 mmHg 76%
19:00 +17°C° 0.1 mm 0 mps 709 mmHg 81%
20:00 +16°C° 0 mm 0 mps 709 mmHg 83%
21:00 +15°C° 0 mm 0 mps 710 mmHg 85%
22:00 +14°C° 0 mm 0 mps 710 mmHg 87%
23:00 +14°C° 0 mm 0 mps 710 mmHg 87%
Show more